Theta_e
288 288 288 291 292 290 292 292 290 286 286 290 288 293 293 296 301 300 302 306 310 310 311 311 312 314 315 318 320 321 323 322 321 322 321 319 325 327
290 288 288 290 289 290 290 292 289 289 286 288 291 294 293 296 299 298 299 301 305 308 308 309 311 311 313 315 316 316 318 319 322 323 325 325 324 327
289 289 289 289 291 289 292 292 288 288 287 288 294 295 293 293 293 295 296 297 298 306 307 307 307 310 312 312 312 314 314 314 317 317 319 321 322 322
290 288 289 292 288 290 293 292 289 288 290 287 289 290 293 292 291 291 292 295 295 299 304 305 306 307 308 309 310 311 311 311 313 314 314 315 316 317
290 289 289 288 287 289 294 292 291 292 291 290 287 287 288 288 287 288 289 289 294 295 298 301 303 306 306 306 306 307 309 310 309 310 311 312 312 312
292 290 289 289 288 291 294 292 292 291 290 286 286 287 289 286 285 287 286 287 288 291 293 296 299 300 303 303 304 304 305 307 309 309 307 308 308 308
291 290 289 292 297 297 295 293 292 291 290 288 288 287 288 286 284 287 285 286 285 285 285 287 289 289 293 296 300 302 302 303 305 306 308 308 306 305
290 288 288 292 293 298 299 298 295 292 290 289 287 285 286 287 287 287 285 284 281 284 284 283 287 286 289 291 300 300 299 300 301 302 304 305 307 308
290 287 288 291 291 290 295 295 294 295 295 289 286 287 285 286 287 285 285 285 285 287 287 278 284 284 287 291 298 297 298 299 299 301 301 302 303 304
289 287 286 287 289 292 289 287 288 288 290 291 290 289 289 286 289 289 286 285 286 288 290 284 287 279 284 289 297 296 297 296 297 297 298 298 299 299
289 288 287 287 294 295 288 286 285 286 293 296 294 294 294 294 292 286 284 285 283 285 288 285 286 279 286 288 287 294 294 295 295 296 297 297 296 296
289 289 293 290 295 294 286 283 280 280 284 285 286 288 290 289 292 289 288 284 284 279 286 285 285 285 278 281 283 285 285 292 293 294 294 295 295 288
289 287 287 293 294 293 292 285 284 287 287 283 283 282 284 285 285 285 286 287 285 284 288 288 286 285 284 284 285 283 284 285 285 287 292 293 294 293
289 287 287 293 293 293 290 292 292 289 283 283 282 279 279 279 280 283 285 286 286 285 286 287 283 283 282 278 277 281 283 285 285 285 286 290 292 293
291 290 294 294 292 289 291 292 290 283 281 281 281 281 282 283 283 284 286 285 285 286 289 286 284 282 281 278 279 280 283 283 285 287 288 288 288 289
291 287 291 292 293 291 288 286 284 283 281 280 280 281 282 283 283 283 282 282 282 282 285 285 285 283 281 281 280 280 281 281 283 285 287 287 290 290
289 285 283 283 282 282 283 284 283 282 281 281 280 280 281 282 282 283 283 281 280 280 280 283 284 284 284 282 278 281 280 281 287 287 287 283 285 286
285 282 281 281 281 281 281 281 282 284 282 282 281 280 281 281 282 283 283 280 280 280 280 280 281 281 282 283 286 281 281 284 287 287 285 282 281 284
282 281 281 281 281 282 281 281 281 282 283 282 281 280 281 282 282 282 282 282 281 280 280 281 280 277 278 279 281 289 283 284 283 285 287 286 284 283
282 281 281 281 282 281 282 282 282 283 282 282 281 281 280 281 281 280 280 280 280 280 280 279 279 278 282 282 282 284 290 286 286 285 285 284 284 289
282 282 282 282 282 282 283 283 283 283 282 282 281 281 281 280 280 280 279 284 283 279 277 279 280 289 286 287 283 283 286 290 289 286 286 280 282 280
282 282 282 282 282 282 282 283 282 282 281 282 281 281 282 281 280 279 279 279 279 278 278 279 282 282 282 282 282 283 284 286 288 289 290 288 282 277
281 281 282 282 282 282 282 282 282 282 282 284 281 281 282 281 281 280 280 280 279 279 279 279 280 280 280 278 283 282 283 283 283 280 282 289 291 292
Wind_Speed
5 3 3 4 3 3 4 4 5 7 8 4 4 7 7 6 12 11 12 24 29 29 23 20 24 24 23 21 25 21 16 10 6 5 4 4 7 7
4 4 4 3 4 3 4 5 3 5 5 3 5 6 7 7 12 9 12 19 24 24 26 24 21 18 19 22 21 23 22 15 18 20 16 7 10 7
5 3 6 5 4 3 4 5 3 3 5 5 4 6 7 7 9 9 9 9 9 25 22 23 21 18 20 20 19 21 19 17 18 19 17 20 24 21
6 4 6 4 5 4 4 4 3 4 3 8 4 3 4 6 7 9 8 9 7 17 20 21 19 16 18 20 20 19 17 20 18 16 17 16 18 20
6 5 6 4 5 4 4 3 3 4 4 5 4 2 1 3 5 7 9 9 7 17 16 18 20 18 19 18 19 18 20 18 14 17 18 17 16 16
6 5 4 4 6 6 4 3 3 3 4 4 4 3 2 2 3 8 8 6 6 8 11 13 14 18 18 17 18 17 18 18 17 15 13 11 14 15
6 5 4 8 10 8 5 3 2 3 3 4 5 4 4 3 5 3 5 7 2 4 5 5 4 5 8 11 12 17 18 17 15 16 12 11 11 11
6 5 4 6 7 11 13 10 7 4 3 3 3 4 5 2 2 2 2 3 4 3 4 5 4 5 4 4 11 16 13 12 12 12 12 13 12 12
6 5 3 3 6 5 7 9 8 9 11 2 3 3 3 2 3 3 2 2 3 3 1 3 4 5 4 6 12 13 13 15 14 14 12 11 11 11
6 5 4 3 5 5 3 5 6 5 5 1 3 4 4 4 2 2 2 3 2 2 4 4 4 3 4 4 18 17 15 12 14 11 11 11 11 12
5 4 5 3 6 8 3 4 5 5 7 6 4 4 5 7 6 3 4 3 3 2 4 2 3 3 3 4 5 16 17 16 15 14 14 12 10 9
5 5 5 7 6 7 1 1 3 5 4 5 5 5 4 4 3 4 2 3 3 3 3 3 4 3 4 2 4 4 4 14 14 14 14 13 12 4
3 3 2 3 6 6 4 1 4 3 5 4 4 3 2 4 3 2 2 3 1 2 3 2 2 3 2 3 3 2 2 3 3 5 11 12 12 11
4 3 3 6 5 5 2 5 6 6 3 3 3 2 2 3 3 3 4 4 4 5 5 3 2 3 2 2 2 4 3 4 3 3 3 7 7 9
3 5 6 6 5 3 5 4 5 3 3 3 3 2 2 4 3 1 3 5 6 5 4 5 4 2 1 2 3 3 4 4 4 3 4 4 3 3
0 2 4 5 5 6 2 3 2 2 2 1 2 3 3 3 3 1 1 1 1 4 4 4 6 5 3 4 3 4 3 2 3 3 2 3 3 4
1 1 1 2 2 2 2 2 2 3 3 2 2 3 3 4 3 2 2 2 2 2 4 4 3 5 5 4 2 3 2 3 3 2 2 3 4 4
2 1 2 2 2 1 0 1 1 3 2 2 2 2 2 3 3 3 2 2 2 3 3 3 4 4 4 3 5 1 1 1 2 3 2 2 3 4
3 2 3 3 3 2 2 1 1 1 0 2 1 2 2 2 4 3 3 2 2 2 2 2 2 2 4 4 3 2 1 2 2 3 2 3 3 6
3 3 3 4 3 3 2 2 1 1 1 1 2 1 2 1 2 3 3 3 2 2 3 2 1 1 1 1 1 3 6 2 1 2 3 2 4 10
4 3 3 3 3 3 3 2 2 0 2 2 2 2 2 1 2 2 3 6 5 2 2 3 3 9 3 0 1 2 3 5 1 3 3 1 3 3
4 4 4 4 4 4 3 2 2 3 2 2 2 2 3 2 2 2 3 2 1 1 2 3 5 4 3 1 2 4 3 3 6 9 7 1 2 2
5 4 4 4 4 4 4 3 2 2 2 1 1 2 3 3 2 2 2 2 0 1 2 4 4 3 2 1 4 3 5 4 4 4 4 8 10 10
Wind_Direction
277 278 281 284 292 287 282 289 304 321 328 341 327 327 322 327 8 358 353 1 15 24 43 38 39 43 32 43 53 52 62 75 127 107 148 167 141 125
281 296 295 285 297 307 307 305 283 292 315 334 326 324 319 352 5 16 360 5 3 23 29 31 50 46 52 48 48 53 53 59 69 57 57 190 179 169
297 295 298 302 300 324 321 309 298 298 314 317 330 342 6 353 353 7 1 4 5 14 28 28 30 38 48 58 52 55 53 43 52 67 57 71 78 78
304 300 295 309 317 280 299 301 300 305 303 324 308 333 33 357 350 358 354 2 11 14 19 21 22 37 44 49 52 56 51 51 41 59 65 63 79 79
303 296 296 313 295 292 289 299 314 328 331 332 314 296 346 14 343 358 355 349 6 14 20 21 20 28 51 45 45 44 49 50 47 51 50 57 62 72
301 293 293 291 279 282 270 281 320 320 325 327 314 309 352 67 36 360 355 352 351 3 8 27 35 28 34 41 43 42 45 42 37 51 51 51 59 58
305 291 287 298 320 327 331 302 288 318 312 327 326 338 348 21 6 349 359 341 325 12 330 348 18 21 12 13 39 36 35 31 34 41 41 48 60 63
292 282 291 323 330 339 340 344 358 340 316 321 350 335 338 338 319 344 334 357 356 329 353 336 5 358 12 4 29 34 32 32 30 28 32 38 39 44
286 249 279 313 337 317 326 354 337 344 346 93 346 333 300 284 300 325 324 313 346 310 335 319 345 354 345 340 52 50 40 32 31 32 31 33 34 36
284 233 215 279 317 333 21 352 337 338 314 232 217 269 259 256 260 276 267 292 290 317 359 14 358 323 329 28 40 34 29 34 25 18 16 18 18 19
304 267 210 220 293 339 35 347 344 316 321 320 336 350 22 22 38 17 3 5 349 350 359 32 356 336 347 30 11 31 24 19 14 19 17 14 7 14
304 317 291 199 315 331 42 342 337 278 302 318 324 318 329 338 76 119 30 18 355 346 338 30 358 7 346 314 358 5 359 9 11 13 12 9 0 20
272 301 291 313 317 315 328 266 245 286 322 335 311 313 295 290 281 272 186 149 161 269 275 46 358 3 4 329 314 312 334 323 352 347 3 9 12 19
237 235 239 302 301 294 302 306 342 28 17 18 22 346 329 307 283 236 239 245 228 206 255 192 214 184 208 294 273 319 325 333 341 340 338 342 344 357
201 225 259 281 307 336 301 335 42 27 25 27 350 315 276 278 308 6 256 268 274 272 257 221 213 223 172 244 290 312 344 329 310 339 330 333 321 323
56 314 277 276 272 237 283 17 45 45 91 17 326 297 314 359 3 327 324 330 339 319 312 257 223 178 233 234 207 276 209 273 290 298 282 304 299 296
224 354 5 30 25 23 23 44 58 50 39 357 4 345 349 352 339 337 36 18 60 323 325 325 349 208 219 212 256 255 249 259 281 296 339 307 291 290
90 193 212 163 154 178 107 45 54 44 33 25 16 4 358 352 342 345 22 43 15 332 326 320 346 13 3 354 170 348 341 299 317 314 327 306 290 299
159 205 191 167 161 159 146 135 146 340 193 68 57 358 353 352 2 340 340 344 341 329 308 324 5 71 29 7 291 234 1 294 307 311 301 301 286 290
171 179 182 169 156 156 152 159 205 6 58 87 66 14 356 321 339 342 342 324 315 316 326 324 343 214 283 323 293 274 292 250 270 270 286 276 273 292
188 182 171 169 150 152 164 171 167 169 119 88 37 13 342 337 328 336 326 342 356 327 317 319 273 303 267 108 334 300 296 35 17 270 276 269 298 303
163 161 162 156 158 154 159 163 155 134 125 101 25 349 340 333 320 328 333 312 307 259 269 290 324 356 352 28 334 329 350 327 321 329 329 284 197 288
163 166 172 174 172 160 152 145 147 141 125 99 66 324 328 326 329 321 312 307 9 35 335 341 348 360 354 333 3 355 350 343 330 331 321 337 335 347